Time,TemperatureF,DewpointF,PressureIn,WindDirection,WindDirectionDegrees,WindSpeedMPH,WindSpeedGustMPH,Humidity,HourlyPrecipIn,Conditions,Clouds,dailyrainin,SolarRadiationWatts/m^2,SoftwareType,DateUTC
2013-01-03 00:02:00,72.9,28.2,-100.00,SSW,209,0.0,5.0,19,0.00,,,0.00,0.0,meteohub,2013-01-03 05:02:00,
2013-01-03 00:07:00,72.9,28.2,-100.00,SSW,209,1.0,5.0,19,0.00,,,0.00,0.0,meteohub,2013-01-03 05:07:00,
2013-01-03 00:12:00,72.7,28.0,-100.00,SSW,209,0.0,5.0,19,0.00,,,0.00,0.0,meteohub,2013-01-03 05:12:00,
2013-01-03 00:17:00,72.3,27.7,-100.00,SSW,213,2.0,4.0,19,0.00,,,0.00,0.0,meteohub,2013-01-03 05:17:00,
2013-01-03 00:22:00,72.1,27.7,-100.00,SSW,213,0.0,4.0,19,0.00,,,0.00,0.0,meteohub,2013-01-03 05:22:00,
2013-01-03 00:27:00,72.0,27.5,-100.00,SW,214,0.0,4.0,19,0.00,,,0.00,0.0,meteohub,2013-01-03 05:27:00,
2013-01-03 00:32:00,72.0,27.5,-100.00,SW,214,0.0,3.0,19,0.00,,,0.00,0.0,meteohub,2013-01-03 05:32:00,
2013-01-03 00:37:00,71.8,27.3,-100.00,SW,214,0.0,3.0,19,0.00,,,0.00,0.0,meteohub,2013-01-03 05:37:00,
2013-01-03 00:42:00,71.4,27.0,-100.00,SW,214,0.0,3.0,19,0.00,,,0.00,0.0,meteohub,2013-01-03 05:42:00,
2013-01-03 00:47:00,71.4,27.0,-100.00,SW,214,2.0,3.0,19,0.00,,,0.00,0.0,meteohub,2013-01-03 05:47:00,
2013-01-03 00:52:00,71.4,27.0,-100.00,SW,214,0.0,2.0,19,0.00,,,0.00,0.0,meteohub,2013-01-03 05:52:00,
2013-01-03 00:57:00,71.4,27.0,-100.00,SW,214,0.0,3.0,19,0.00,,,0.00,0.0,meteohub,2013-01-03 05:57:00,
2013-01-03 01:02:00,71.4,27.0,-100.00,SW,214,2.0,4.0,19,0.00,,,0.00,0.0,meteohub,2013-01-03 06:02:00,
2013-01-03 01:07:00,71.2,26.8,-100.00,SW,215,0.0,4.0,19,0.00,,,0.00,0.0,meteohub,2013-01-03 06:07:00,
2013-01-03 01:12:00,71.2,26.8,-100.00,SW,225,2.0,5.0,19,0.00,,,0.00,0.0,meteohub,2013-01-03 06:12:00,
2013-01-03 01:17:00,71.2,26.8,-100.00,WSW,241,2.0,5.0,19,0.00,,,0.00,0.0,meteohub,2013-01-03 06:17:00,
2013-01-03 01:22:00,71.1,26.8,-100.00,WSW,242,0.0,5.0,19,0.00,,,0.00,0.0,meteohub,2013-01-03 06:22:00,
2013-01-03 01:27:00,70.9,27.9,-100.00,WSW,242,0.0,5.0,20,0.00,,,0.00,0.0,meteohub,2013-01-03 06:27:00,
2013-01-03 01:32:00,70.7,26.4,-100.00,WSW,241,1.0,4.0,19,0.00,,,0.00,0.0,meteohub,2013-01-03 06:32:00,
2013-01-03 01:37:00,70.5,26.2,-100.00,WSW,242,0.0,4.0,19,0.00,,,0.00,0.0,meteohub,2013-01-03 06:37:00,
2013-01-03 01:42:00,70.3,26.1,-100.00,WSW,242,0.0,3.0,19,0.00,,,0.00,0.0,meteohub,2013-01-03 06:42:00,
2013-01-03 01:47:00,70.2,27.1,-100.00,WSW,241,1.0,2.0,20,0.00,,,0.00,0.0,meteohub,2013-01-03 06:47:00,
2013-01-03 01:52:00,69.8,27.0,-100.00,WSW,241,0.0,2.0,20,0.00,,,0.00,0.0,meteohub,2013-01-03 06:52:00,
2013-01-03 01:57:00,69.6,26.8,-100.00,WSW,242,0.0,2.0,20,0.00,,,0.00,0.0,meteohub,2013-01-03 06:57:00,
2013-01-03 02:07:00,69.3,26.4,-100.00,WSW,242,0.0,4.0,20,0.00,,,0.00,0.0,meteohub,2013-01-03 07:07:00,
2013-01-03 02:12:00,69.3,26.4,-100.00,WSW,241,3.0,4.0,20,0.00,,,0.00,0.0,meteohub,2013-01-03 07:12:00,
2013-01-03 02:17:00,69.3,26.4,-100.00,SW,228,0.0,6.0,20,0.00,,,0.00,0.0,meteohub,2013-01-03 07:17:00,
2013-01-03 02:22:00,69.3,26.4,-100.00,SW,226,3.0,6.0,20,0.00,,,0.00,0.0,meteohub,2013-01-03 07:22:00,
2013-01-03 02:27:00,69.1,26.2,-100.00,SW,227,2.0,6.0,20,0.00,,,0.00,0.0,meteohub,2013-01-03 07:27:00,
2013-01-03 02:32:00,69.1,26.2,-100.00,SW,226,0.0,4.0,20,0.00,,,0.00,0.0,meteohub,2013-01-03 07:32:00,
2013-01-03 02:37:00,68.9,26.2,-100.00,SW,227,0.0,4.0,20,0.00,,,0.00,0.0,meteohub,2013-01-03 07:37:00,
2013-01-03 02:47:00,68.9,26.2,-100.00,SW,226,0.0,3.0,20,0.00,,,0.00,0.0,meteohub,2013-01-03 07:47:00,
2013-01-03 02:52:00,68.7,26.1,-100.00,SW,227,0.0,3.0,20,0.00,,,0.00,0.0,meteohub,2013-01-03 07:52:00,
2013-01-03 03:02:00,68.7,26.1,-100.00,SW,227,0.0,0.0,20,0.00,,,0.00,0.0,meteohub,2013-01-03 08:02:00,
2013-01-03 03:07:00,68.9,26.2,-100.00,SW,226,1.0,1.0,20,0.00,,,0.00,0.0,meteohub,2013-01-03 08:07:00,
2013-01-03 03:12:00,68.9,26.2,-100.00,SW,227,0.0,2.0,20,0.00,,,0.00,0.0,meteohub,2013-01-03 08:12:00,
2013-01-03 03:22:00,68.9,26.2,-100.00,SW,226,2.0,3.0,20,0.00,,,0.00,0.0,meteohub,2013-01-03 08:22:00,
2013-01-03 03:27:00,68.9,26.2,-100.00,SW,226,0.0,3.0,20,0.00,,,0.00,0.0,meteohub,2013-01-03 08:27:00,
2013-01-03 03:32:00,68.9,26.2,-100.00,SW,227,0.0,3.0,20,0.00,,,0.00,0.0,meteohub,2013-01-03 08:32:00,
2013-01-03 03:37:00,68.9,26.2,-100.00,SW,227,0.0,2.0,20,0.00,,,0.00,0.0,meteohub,2013-01-03 08:37:00,
2013-01-03 03:42:00,69.1,26.2,-100.00,SW,226,0.0,2.0,20,0.00,,,0.00,0.0,meteohub,2013-01-03 08:42:00,
2013-01-03 03:47:00,68.9,26.2,-100.00,SW,227,0.0,2.0,20,0.00,,,0.00,0.0,meteohub,2013-01-03 08:47:00,
2013-01-03 03:52:00,69.1,26.2,-100.00,SW,227,0.0,2.0,20,0.00,,,0.00,0.0,meteohub,2013-01-03 08:52:00,
2013-01-03 03:57:00,69.1,26.2,-100.00,SW,226,0.0,2.0,20,0.00,,,0.00,0.0,meteohub,2013-01-03 08:57:00,
2013-01-03 04:02:00,69.1,26.2,-100.00,SW,226,1.0,2.0,20,0.00,,,0.00,0.0,meteohub,2013-01-03 09:02:00,
2013-01-03 04:07:00,69.1,26.2,-100.00,SW,227,0.0,3.0,20,0.00,,,0.00,0.0,meteohub,2013-01-03 09:07:00,
2013-01-03 04:17:00,69.1,26.2,-100.00,SW,227,0.0,3.0,20,0.00,,,0.00,0.0,meteohub,2013-01-03 09:17:00,
2013-01-03 04:22:00,68.9,26.2,-100.00,SW,226,0.0,2.0,20,0.00,,,0.00,0.0,meteohub,2013-01-03 09:22:00,
2013-01-03 04:32:00,68.7,26.1,-100.00,SW,227,0.0,2.0,20,0.00,,,0.00,0.0,meteohub,2013-01-03 09:32:00,
2013-01-03 04:37:00,68.7,26.1,-100.00,SW,226,0.0,2.0,20,0.00,,,0.00,0.0,meteohub,2013-01-03 09:37:00,
2013-01-03 04:42:00,68.5,25.9,-100.00,SW,226,1.0,1.0,20,0.00,,,0.00,0.0,meteohub,2013-01-03 09:42:00,
2013-01-03 04:47:00,68.4,25.7,-100.00,SW,227,0.0,2.0,20,0.00,,,0.00,0.0,meteohub,2013-01-03 09:47:00,
2013-01-03 04:52:00,68.4,25.7,-100.00,SW,227,0.0,2.0,20,0.00,,,0.00,0.0,meteohub,2013-01-03 09:52:00,
2013-01-03 04:57:00,68.4,25.7,-100.00,SW,226,2.0,2.0,20,0.00,,,0.00,0.0,meteohub,2013-01-03 09:57:00,
2013-01-03 05:02:00,68.4,25.7,-100.00,SW,227,0.0,3.0,20,0.00,,,0.00,0.0,meteohub,2013-01-03 10:02:00,
2013-01-03 05:07:00,68.4,25.7,-100.00,SW,227,1.0,3.0,20,0.00,,,0.00,0.0,meteohub,2013-01-03 10:07:00,
2013-01-03 05:17:00,68.4,25.7,-100.00,SW,232,0.0,3.0,20,0.00,,,0.00,0.0,meteohub,2013-01-03 10:17:00,
2013-01-03 05:22:00,68.4,25.7,-100.00,SW,232,1.0,3.0,20,0.00,,,0.00,0.0,meteohub,2013-01-03 10:22:00,
2013-01-03 05:32:00,68.4,25.7,-100.00,SW,235,0.0,4.0,20,0.00,,,0.00,0.0,meteohub,2013-01-03 10:32:00,
2013-01-03 05:37:00,68.4,25.7,-100.00,SW,234,1.0,4.0,20,0.00,,,0.00,0.0,meteohub,2013-01-03 10:37:00,
2013-01-03 05:47:00,68.2,25.5,-100.00,WSW,248,0.0,4.0,20,0.00,,,0.00,0.0,meteohub,2013-01-03 10:47:00,
2013-01-03 05:52:00,68.2,25.5,-100.00,WSW,248,1.0,4.0,20,0.00,,,0.00,0.0,meteohub,2013-01-03 10:52:00,
2013-01-03 05:57:00,68.2,25.5,-100.00,WSW,248,0.0,4.0,20,0.00,,,0.00,0.0,meteohub,2013-01-03 10:57:00,
2013-01-03 06:02:00,68.2,25.5,-100.00,WSW,248,0.0,4.0,20,0.00,,,0.00,0.0,meteohub,2013-01-03 11:02:00,
2013-01-03 06:07:00,68.2,25.5,-100.00,South,175,0.0,2.0,20,0.00,,,0.00,0.0,meteohub,2013-01-03 11:07:00,
2013-01-03 06:17:00,68.2,25.5,-100.00,South,180,0.0,4.0,20,0.00,,,0.00,0.0,meteohub,2013-01-03 11:17:00,
2013-01-03 06:22:00,68.0,25.3,-100.00,South,180,0.0,4.0,20,0.00,,,0.00,0.0,meteohub,2013-01-03 11:22:00,
2013-01-03 06:27:00,67.8,25.3,-100.00,South,180,0.0,1.0,20,0.00,,,0.00,0.0,meteohub,2013-01-03 11:27:00,
2013-01-03 06:32:00,68.2,25.5,-100.00,South,178,1.0,3.0,20,0.00,,,0.00,0.0,meteohub,2013-01-03 11:32:00,
2013-01-03 06:42:00,68.4,25.7,-100.00,South,178,0.0,3.0,20,0.00,,,0.00,0.0,meteohub,2013-01-03 11:42:00,
2013-01-03 06:52:00,68.4,25.7,-100.00,South,178,0.0,0.0,20,0.00,,,0.00,0.0,meteohub,2013-01-03 11:52:00,
2013-01-03 06:57:00,68.5,25.9,-100.00,South,178,1.0,0.0,20,0.00,,,0.00,0.0,meteohub,2013-01-03 11:57:00,
2013-01-03 07:02:00,68.7,26.1,-100.00,South,178,0.0,2.0,20,0.00,,,0.00,0.0,meteohub,2013-01-03 12:02:00,
2013-01-03 07:07:00,69.1,26.2,-100.00,South,178,0.0,2.0,20,0.00,,,0.00,0.0,meteohub,2013-01-03 12:07:00,
2013-01-03 07:12:00,69.3,26.4,-100.00,South,178,0.0,2.0,20,0.00,,,0.00,5.0,meteohub,2013-01-03 12:12:00,
2013-01-03 07:17:00,69.4,26.6,-100.00,South,178,0.0,2.0,20,0.00,,,0.00,9.0,meteohub,2013-01-03 12:17:00,
2013-01-03 07:22:00,69.4,26.6,-100.00,South,178,0.0,2.0,20,0.00,,,0.00,12.0,meteohub,2013-01-03 12:22:00,
2013-01-03 07:27:00,69.3,26.4,-100.00,South,178,0.0,2.0,20,0.00,,,0.00,19.0,meteohub,2013-01-03 12:27:00,
2013-01-03 07:32:00,69.1,26.2,-100.00,South,178,0.0,0.0,20,0.00,,,0.00,32.0,meteohub,2013-01-03 12:32:00,
2013-01-03 07:37:00,69.1,26.2,-100.00,South,178,0.0,0.0,20,0.00,,,0.00,44.0,meteohub,2013-01-03 12:37:00,
2013-01-03 07:47:00,68.7,26.1,-100.00,South,178,0.0,0.0,20,0.00,,,0.00,35.0,meteohub,2013-01-03 12:47:00,
2013-01-03 07:52:00,68.7,26.1,-100.00,South,178,0.0,0.0,20,0.00,,,0.00,37.0,meteohub,2013-01-03 12:52:00,
2013-01-03 07:57:00,68.9,26.2,-100.00,South,178,0.0,0.0,20,0.00,,,0.00,42.0,meteohub,2013-01-03 12:57:00,
2013-01-03 08:02:00,68.9,26.2,-100.00,South,178,0.0,0.0,20,0.00,,,0.00,51.0,meteohub,2013-01-03 13:02:00,
2013-01-03 08:07:00,69.1,26.2,-100.00,South,178,0.0,0.0,20,0.00,,,0.00,144.0,meteohub,2013-01-03 13:07:00,
2013-01-03 08:12:00,69.4,26.6,-100.00,South,178,0.0,0.0,20,0.00,,,0.00,158.0,meteohub,2013-01-03 13:12:00,
2013-01-03 08:17:00,70.0,27.1,-100.00,South,178,0.0,0.0,20,0.00,,,0.00,181.0,meteohub,2013-01-03 13:17:00,
2013-01-03 08:22:00,70.5,27.5,-100.00,South,178,0.0,1.0,20,0.00,,,0.00,213.0,meteohub,2013-01-03 13:22:00,
2013-01-03 08:27:00,71.2,28.0,-100.00,South,178,0.0,1.0,20,0.00,,,0.00,218.0,meteohub,2013-01-03 13:27:00,
2013-01-03 08:32:00,71.8,28.6,-100.00,South,178,0.0,1.0,20,0.00,,,0.00,200.0,meteohub,2013-01-03 13:32:00,
2013-01-03 08:37:00,72.1,30.0,-100.00,South,178,0.0,1.0,21,0.00,,,0.00,257.0,meteohub,2013-01-03 13:37:00,
2013-01-03 08:47:00,72.9,31.8,-100.00,South,178,0.0,1.0,22,0.00,,,0.00,227.0,meteohub,2013-01-03 13:47:00,
2013-01-03 08:52:00,73.0,33.1,-100.00,South,178,0.0,1.0,23,0.00,,,0.00,295.0,meteohub,2013-01-03 13:52:00,
2013-01-03 08:57:00,73.4,33.3,-100.00,South,178,0.0,1.0,23,0.00,,,0.00,311.0,meteohub,2013-01-03 13:57:00,
2013-01-03 09:02:00,73.8,34.7,-100.00,South,178,0.0,3.0,24,0.00,,,0.00,327.0,meteohub,2013-01-03 14:02:00,
2013-01-03 09:07:00,74.1,35.1,-100.00,South,178,1.0,3.0,24,0.00,,,0.00,341.0,meteohub,2013-01-03 14:07:00,
2013-01-03 09:12:00,74.5,36.3,-100.00,South,179,0.0,3.0,25,0.00,,,0.00,306.0,meteohub,2013-01-03 14:12:00,
2013-01-03 09:17:00,74.7,37.6,-100.00,South,179,0.0,3.0,26,0.00,,,0.00,353.0,meteohub,2013-01-03 14:17:00,
2013-01-03 09:22:00,74.7,39.4,-100.00,South,179,0.0,3.0,28,0.00,,,0.00,385.0,meteohub,2013-01-03 14:22:00,
2013-01-03 09:32:00,75.4,41.7,-100.00,South,181,0.0,2.0,30,0.00,,,0.00,417.0,meteohub,2013-01-03 14:32:00,
2013-01-03 09:37:00,75.4,41.7,-100.00,South,180,1.0,3.0,30,0.00,,,0.00,473.0,meteohub,2013-01-03 14:37:00,
2013-01-03 09:47:00,76.3,42.6,-100.00,South,181,0.0,3.0,30,0.00,,,0.00,425.0,meteohub,2013-01-03 14:47:00,
2013-01-03 09:52:00,75.9,43.9,-100.00,South,183,2.0,3.0,32,0.00,,,0.00,163.0,meteohub,2013-01-03 14:52:00,
2013-01-03 09:57:00,75.6,43.7,-100.00,South,183,0.0,4.0,32,0.00,,,0.00,183.0,meteohub,2013-01-03 14:57:00,
2013-01-03 10:07:00,75.6,41.0,-100.00,South,184,2.0,5.0,29,0.00,,,0.00,650.0,meteohub,2013-01-03 15:07:00,
2013-01-03 10:12:00,76.1,41.5,-100.00,South,191,6.0,6.0,29,0.00,,,0.00,585.0,meteohub,2013-01-03 15:12:00,
2013-01-03 10:17:00,76.3,41.7,-100.00,SSW,194,4.0,6.0,29,0.00,,,0.00,573.0,meteohub,2013-01-03 15:17:00,
2013-01-03 10:22:00,76.5,43.5,-100.00,SSW,192,1.0,6.0,31,0.00,,,0.00,564.0,meteohub,2013-01-03 15:22:00,
2013-01-03 10:27:00,76.8,43.9,-100.00,SSW,194,0.0,6.0,31,0.00,,,0.00,594.0,meteohub,2013-01-03 15:27:00,
2013-01-03 10:32:00,77.0,44.1,-100.00,South,191,0.0,6.0,31,0.00,,,0.00,612.0,meteohub,2013-01-03 15:32:00,
2013-01-03 10:37:00,77.4,44.4,-100.00,South,187,0.0,6.0,31,0.00,,,0.00,629.0,meteohub,2013-01-03 15:37:00,
2013-01-03 10:42:00,77.4,43.5,-100.00,SSW,200,1.0,9.0,30,0.00,,,0.00,552.0,meteohub,2013-01-03 15:42:00,
2013-01-03 10:47:00,77.0,44.1,-100.00,South,188,2.0,9.0,31,0.00,,,0.00,264.0,meteohub,2013-01-03 15:47:00,
2013-01-03 10:52:00,76.8,43.0,-100.00,SSW,196,7.0,11.0,30,0.00,,,0.00,192.0,meteohub,2013-01-03 15:52:00,
2013-01-03 10:57:00,77.2,43.3,-100.00,SSW,209,3.0,11.0,30,0.00,,,0.00,728.0,meteohub,2013-01-03 15:57:00,
2013-01-03 11:02:00,76.6,42.8,-100.00,SSW,195,5.0,11.0,30,0.00,,,0.00,250.0,meteohub,2013-01-03 16:02:00,
2013-01-03 11:07:00,76.8,42.1,-100.00,South,184,1.0,11.0,29,0.00,,,0.00,283.0,meteohub,2013-01-03 16:07:00,
2013-01-03 11:17:00,77.4,43.5,-100.00,South,188,0.0,11.0,30,0.00,,,0.00,306.0,meteohub,2013-01-03 16:17:00,
2013-01-03 11:22:00,77.5,44.6,-100.00,South,185,7.0,8.0,31,0.00,,,0.00,840.0,meteohub,2013-01-03 16:22:00,
2013-01-03 11:27:00,78.3,46.8,-100.00,South,186,4.0,9.0,33,0.00,,,0.00,163.0,meteohub,2013-01-03 16:27:00,
2013-01-03 11:32:00,77.7,46.4,-100.00,South,180,5.0,9.0,33,0.00,,,0.00,141.0,meteohub,2013-01-03 16:32:00,
2013-01-03 11:37:00,77.4,45.1,-100.00,South,179,4.0,9.0,32,0.00,,,0.00,139.0,meteohub,2013-01-03 16:37:00,
2013-01-03 11:42:00,77.2,43.3,-100.00,SSE,159,2.0,7.0,30,0.00,,,0.00,183.0,meteohub,2013-01-03 16:42:00,
2013-01-03 11:47:00,77.2,42.4,-100.00,SSE,164,0.0,7.0,29,0.00,,,0.00,155.0,meteohub,2013-01-03 16:47:00,
2013-01-03 11:52:00,77.2,41.5,-100.00,South,174,4.0,7.0,28,0.00,,,0.00,221.0,meteohub,2013-01-03 16:52:00,
2013-01-03 11:57:00,77.4,41.7,-100.00,South,177,0.0,6.0,28,0.00,,,0.00,246.0,meteohub,2013-01-03 16:57:00,
2013-01-03 12:02:00,77.7,42.1,-100.00,South,172,1.0,6.0,28,0.00,,,0.00,246.0,meteohub,2013-01-03 17:02:00,
2013-01-03 12:07:00,78.1,43.2,-100.00,South,169,9.0,9.0,29,0.00,,,0.00,343.0,meteohub,2013-01-03 17:07:00,
2013-01-03 12:12:00,78.6,44.6,-100.00,South,169,4.0,10.0,30,0.00,,,0.00,893.0,meteohub,2013-01-03 17:12:00,
2013-01-03 12:22:00,78.1,44.1,-100.00,SW,223,5.0,10.0,30,0.00,,,0.00,246.0,meteohub,2013-01-03 17:22:00,
2013-01-03 12:27:00,77.7,43.0,-100.00,South,173,4.0,10.0,29,0.00,,,0.00,257.0,meteohub,2013-01-03 17:27:00,
2013-01-03 12:32:00,77.5,41.9,-100.00,SSE,167,4.0,11.0,28,0.00,,,0.00,139.0,meteohub,2013-01-03 17:32:00,
2013-01-03 12:37:00,77.7,42.1,-100.00,SSW,200,5.0,11.0,28,0.00,,,0.00,195.0,meteohub,2013-01-03 17:37:00,
2013-01-03 12:42:00,78.3,42.4,-100.00,South,182,5.0,11.0,28,0.00,,,0.00,823.0,meteohub,2013-01-03 17:42:00,
2013-01-03 12:47:00,78.8,45.7,-100.00,SSW,199,4.0,9.0,31,0.00,,,0.00,805.0,meteohub,2013-01-03 17:47:00,
2013-01-03 12:52:00,79.9,49.8,-100.00,SSW,213,9.0,10.0,35,0.00,,,0.00,652.0,meteohub,2013-01-03 17:52:00,
2013-01-03 12:57:00,79.9,48.9,-100.00,South,191,5.0,11.0,34,0.00,,,0.00,726.0,meteohub,2013-01-03 17:57:00,
2013-01-03 13:02:00,79.9,48.9,-100.00,SSE,165,9.0,11.0,34,0.00,,,0.00,462.0,meteohub,2013-01-03 18:02:00,
2013-01-03 13:07:00,79.7,49.6,-100.00,SSW,199,7.0,11.0,35,0.00,,,0.00,534.0,meteohub,2013-01-03 18:07:00,
2013-01-03 13:12:00,79.2,47.7,-100.00,South,178,1.0,10.0,33,0.00,,,0.00,209.0,meteohub,2013-01-03 18:12:00,
2013-01-03 13:17:00,78.6,45.5,-100.00,South,188,10.0,14.0,31,0.00,,,0.00,206.0,meteohub,2013-01-03 18:17:00,
2013-01-03 13:22:00,78.1,43.2,-100.00,SSE,167,4.0,14.0,29,0.00,,,0.00,234.0,meteohub,2013-01-03 18:22:00,
2013-01-03 13:27:00,78.4,42.6,-100.00,SSW,194,2.0,14.0,28,0.00,,,0.00,234.0,meteohub,2013-01-03 18:27:00,
2013-01-03 13:32:00,78.6,43.7,-100.00,South,189,5.0,14.0,29,0.00,,,0.00,232.0,meteohub,2013-01-03 18:32:00,
2013-01-03 13:37:00,78.4,44.4,-100.00,South,186,0.0,12.0,30,0.00,,,0.00,232.0,meteohub,2013-01-03 18:37:00,
2013-01-03 13:42:00,79.0,45.0,-100.00,South,180,3.0,13.0,30,0.00,,,0.00,721.0,meteohub,2013-01-03 18:42:00,
2013-01-03 13:47:00,79.3,46.9,-100.00,SSE,161,4.0,13.0,32,0.00,,,0.00,633.0,meteohub,2013-01-03 18:47:00,
2013-01-03 13:52:00,79.3,47.7,-100.00,South,173,5.0,13.0,33,0.00,,,0.00,631.0,meteohub,2013-01-03 18:52:00,
2013-01-03 14:02:00,79.3,50.7,-100.00,SSE,152,3.0,15.0,37,0.00,,,0.00,684.0,meteohub,2013-01-03 19:02:00,
2013-01-03 14:07:00,79.9,51.3,-100.00,SSW,192,4.0,15.0,37,0.00,,,0.00,621.0,meteohub,2013-01-03 19:07:00,
2013-01-03 14:12:00,79.5,50.9,-100.00,SE,146,5.0,15.0,37,0.00,,,0.00,589.0,meteohub,2013-01-03 19:12:00,
2013-01-03 14:17:00,78.4,47.7,-100.00,South,188,6.0,12.0,34,0.00,,,0.00,134.0,meteohub,2013-01-03 19:17:00,
2013-01-03 14:52:00,79.0,51.3,-100.00,South,176,5.0,13.0,38,0.00,,,0.00,527.0,meteohub,2013-01-03 19:52:00,
2013-01-03 14:57:00,79.3,52.2,-100.00,South,187,9.0,15.0,39,0.00,,,0.00,533.0,meteohub,2013-01-03 19:57:00,
2013-01-03 15:02:00,79.7,53.2,-100.00,SSW,202,2.0,15.0,40,0.00,,,0.00,471.0,meteohub,2013-01-03 20:02:00,
2013-01-03 15:07:00,79.9,52.7,-100.00,SSE,159,9.0,15.0,39,0.00,,,0.00,450.0,meteohub,2013-01-03 20:07:00,
2013-01-03 15:12:00,79.9,53.4,-100.00,SSW,205,12.0,14.0,40,0.00,,,0.00,422.0,meteohub,2013-01-03 20:12:00,
2013-01-03 15:17:00,79.5,52.3,-100.00,South,169,2.0,14.0,39,0.00,,,0.00,394.0,meteohub,2013-01-03 20:17:00,
2013-01-03 15:22:00,79.5,53.8,-100.00,SSE,161,9.0,14.0,41,0.00,,,0.00,383.0,meteohub,2013-01-03 20:22:00,
2013-01-03 15:27:00,79.2,52.7,-100.00,South,191,7.0,14.0,40,0.00,,,0.00,97.0,meteohub,2013-01-03 20:27:00,
2013-01-03 15:32:00,78.6,50.2,-100.00,South,188,11.0,14.0,37,0.00,,,0.00,360.0,meteohub,2013-01-03 20:32:00,
2013-01-03 15:37:00,78.8,49.6,-100.00,SSW,207,6.0,13.0,36,0.00,,,0.00,339.0,meteohub,2013-01-03 20:37:00,
2013-01-03 15:42:00,78.4,48.6,-100.00,South,188,2.0,14.0,35,0.00,,,0.00,309.0,meteohub,2013-01-03 20:42:00,
2013-01-03 15:47:00,78.4,49.3,-100.00,South,174,3.0,14.0,36,0.00,,,0.00,304.0,meteohub,2013-01-03 20:47:00,
2013-01-03 15:52:00,79.2,52.7,-100.00,SSW,203,12.0,14.0,40,0.00,,,0.00,287.0,meteohub,2013-01-03 20:52:00,
2013-01-03 15:57:00,79.5,53.1,-100.00,South,175,6.0,14.0,40,0.00,,,0.00,279.0,meteohub,2013-01-03 20:57:00,
2013-01-03 16:02:00,78.6,50.9,-100.00,SSE,168,7.0,14.0,38,0.00,,,0.00,125.0,meteohub,2013-01-03 21:02:00,
2013-01-03 16:07:00,78.6,52.3,-100.00,South,179,7.0,12.0,40,0.00,,,0.00,248.0,meteohub,2013-01-03 21:07:00,
2013-01-03 16:12:00,78.4,51.4,-100.00,South,190,8.0,14.0,39,0.00,,,0.00,49.0,meteohub,2013-01-03 21:12:00,
2013-01-03 16:17:00,77.9,50.9,-100.00,SSW,194,10.0,14.0,39,0.00,,,0.00,53.0,meteohub,2013-01-03 21:17:00,
2013-01-03 16:22:00,77.4,48.4,-100.00,South,170,13.0,13.0,36,0.00,,,0.00,190.0,meteohub,2013-01-03 21:22:00,
2013-01-03 16:27:00,77.7,50.7,-100.00,SSW,199,7.0,13.0,39,0.00,,,0.00,167.0,meteohub,2013-01-03 21:27:00,
2013-01-03 16:32:00,77.7,50.0,-100.00,South,186,6.0,13.0,38,0.00,,,0.00,155.0,meteohub,2013-01-03 21:32:00,
2013-01-03 16:37:00,77.5,50.5,-100.00,South,187,2.0,13.0,39,0.00,,,0.00,54.0,meteohub,2013-01-03 21:37:00,
2013-01-03 16:45:00,77.4,50.5,-100.00,South,179,3.0,13.0,39,0.00,,,0.00,79.0,meteohub,2013-01-03 21:45:00,
2013-01-03 16:52:00,76.8,50.0,-100.00,South,190,9.0,11.0,39,0.00,,,0.00,44.0,meteohub,2013-01-03 21:52:00,
2013-01-03 16:57:00,76.5,48.2,-100.00,South,180,2.0,11.0,37,0.00,,,0.00,32.0,meteohub,2013-01-03 21:57:00,
2013-01-03 17:02:00,76.5,47.5,-100.00,South,182,0.0,11.0,36,0.00,,,0.00,30.0,meteohub,2013-01-03 22:02:00,
2013-01-03 17:07:00,76.3,47.3,-100.00,SSW,206,0.0,11.0,36,0.00,,,0.00,26.0,meteohub,2013-01-03 22:07:00,
2013-01-03 17:12:00,76.3,46.6,-100.00,SSW,198,9.0,9.0,35,0.00,,,0.00,25.0,meteohub,2013-01-03 22:12:00,
2013-01-03 17:17:00,75.9,47.1,-100.00,South,176,3.0,12.0,36,0.00,,,0.00,21.0,meteohub,2013-01-03 22:17:00,
2013-01-03 17:22:00,75.7,46.9,-100.00,SSE,157,2.0,12.0,36,0.00,,,0.00,18.0,meteohub,2013-01-03 22:22:00,
2013-01-03 17:27:00,75.7,46.9,-100.00,South,190,2.0,12.0,36,0.00,,,0.00,12.0,meteohub,2013-01-03 22:27:00,
2013-01-03 17:32:00,75.6,45.1,-100.00,SSE,167,2.0,11.0,34,0.00,,,0.00,9.0,meteohub,2013-01-03 22:32:00,
2013-01-03 17:37:00,75.7,43.7,-100.00,SSW,196,4.0,11.0,32,0.00,,,0.00,5.0,meteohub,2013-01-03 22:37:00,
2013-01-03 17:42:00,75.7,44.6,-100.00,SSW,192,3.0,11.0,33,0.00,,,0.00,0.0,meteohub,2013-01-03 22:42:00,
2013-01-03 17:47:00,75.6,43.7,-100.00,South,171,4.0,13.0,32,0.00,,,0.00,0.0,meteohub,2013-01-03 22:47:00,
2013-01-03 17:52:00,75.6,42.8,-100.00,SSW,193,10.0,13.0,31,0.00,,,0.00,0.0,meteohub,2013-01-03 22:52:00,
2013-01-03 17:57:00,75.6,42.8,-100.00,SSW,192,5.0,12.0,31,0.00,,,0.00,0.0,meteohub,2013-01-03 22:57:00,
2013-01-03 18:02:00,75.6,41.9,-100.00,South,176,1.0,12.0,30,0.00,,,0.00,0.0,meteohub,2013-01-03 23:02:00,
2013-01-03 18:07:00,75.7,41.2,-100.00,SSW,196,4.0,12.0,29,0.00,,,0.00,0.0,meteohub,2013-01-03 23:07:00,
2013-01-03 18:12:00,75.7,42.1,-100.00,SSW,201,6.0,12.0,30,0.00,,,0.00,0.0,meteohub,2013-01-03 23:12:00,
2013-01-03 18:17:00,75.6,41.0,-100.00,South,172,2.0,12.0,29,0.00,,,0.00,0.0,meteohub,2013-01-03 23:17:00,
2013-01-03 18:22:00,75.6,40.1,-100.00,SSW,203,6.0,11.0,28,0.00,,,0.00,0.0,meteohub,2013-01-03 23:22:00,
2013-01-03 18:27:00,75.7,40.3,-100.00,South,188,3.0,11.0,28,0.00,,,0.00,0.0,meteohub,2013-01-03 23:27:00,
2013-01-03 18:32:00,75.7,39.4,-100.00,South,177,4.0,11.0,27,0.00,,,0.00,0.0,meteohub,2013-01-03 23:32:00,
2013-01-03 18:37:00,75.7,39.4,-100.00,South,187,6.0,10.0,27,0.00,,,0.00,0.0,meteohub,2013-01-03 23:37:00,
2013-01-03 18:42:00,75.6,39.2,-100.00,SSW,195,6.0,9.0,27,0.00,,,0.00,0.0,meteohub,2013-01-03 23:42:00,
2013-01-03 18:47:00,75.6,38.3,-100.00,SSW,198,5.0,9.0,26,0.00,,,0.00,0.0,meteohub,2013-01-03 23:47:00,
2013-01-03 18:52:00,75.7,38.5,-100.00,South,171,4.0,11.0,26,0.00,,,0.00,0.0,meteohub,2013-01-03 23:52:00,
2013-01-03 18:57:00,75.6,38.3,-100.00,South,182,0.0,11.0,26,0.00,,,0.00,0.0,meteohub,2013-01-03 23:57:00,
2013-01-03 19:02:00,75.6,37.2,-100.00,SSW,200,5.0,11.0,25,0.00,,,0.00,0.0,meteohub,2013-01-04 00:02:00,
2013-01-03 19:07:00,75.6,37.2,-100.00,South,186,3.0,9.0,25,0.00,,,0.00,0.0,meteohub,2013-01-04 00:07:00,
2013-01-03 19:12:00,75.6,36.3,-100.00,SSW,193,1.0,10.0,24,0.00,,,0.00,0.0,meteohub,2013-01-04 00:12:00,
2013-01-03 19:17:00,75.6,35.2,-100.00,SSW,199,3.0,10.0,23,0.00,,,0.00,0.0,meteohub,2013-01-04 00:17:00,
2013-01-03 19:22:00,75.6,34.0,-100.00,SSE,160,3.0,9.0,22,0.00,,,0.00,0.0,meteohub,2013-01-04 00:22:00,
2013-01-03 19:27:00,75.6,34.0,-100.00,South,191,4.0,9.0,22,0.00,,,0.00,0.0,meteohub,2013-01-04 00:27:00,
2013-01-03 19:32:00,75.7,33.1,-100.00,SSW,194,2.0,7.0,21,0.00,,,0.00,0.0,meteohub,2013-01-04 00:32:00,
2013-01-03 19:37:00,75.7,33.1,-100.00,South,188,1.0,7.0,21,0.00,,,0.00,0.0,meteohub,2013-01-04 00:37:00,
2013-01-03 19:42:00,75.9,33.3,-100.00,SSW,193,3.0,8.0,21,0.00,,,0.00,0.0,meteohub,2013-01-04 00:42:00,
2013-01-03 19:47:00,75.9,33.3,-100.00,SSW,192,5.0,8.0,21,0.00,,,0.00,0.0,meteohub,2013-01-04 00:47:00,
2013-01-03 19:52:00,75.9,32.0,-100.00,SSW,194,4.0,7.0,20,0.00,,,0.00,0.0,meteohub,2013-01-04 00:52:00,
2013-01-03 19:57:00,75.9,32.0,-100.00,SSW,194,2.0,7.0,20,0.00,,,0.00,0.0,meteohub,2013-01-04 00:57:00,
2013-01-03 20:02:00,76.1,32.2,-100.00,South,189,4.0,9.0,20,0.00,,,0.00,0.0,meteohub,2013-01-04 01:02:00,
2013-01-03 20:07:00,76.1,32.2,-100.00,SSE,163,3.0,9.0,20,0.00,,,0.00,0.0,meteohub,2013-01-04 01:07:00,
2013-01-03 20:12:00,76.3,32.2,-100.00,South,169,4.0,9.0,20,0.00,,,0.00,0.0,meteohub,2013-01-04 01:12:00,
2013-01-03 20:17:00,76.1,32.2,-100.00,South,182,0.0,10.0,20,0.00,,,0.00,0.0,meteohub,2013-01-04 01:17:00,
2013-01-03 20:22:00,75.9,32.0,-100.00,South,182,3.0,10.0,20,0.00,,,0.00,0.0,meteohub,2013-01-04 01:22:00,
2013-01-03 20:27:00,75.9,30.7,-100.00,SSE,163,4.0,9.0,19,0.00,,,0.00,0.0,meteohub,2013-01-04 01:27:00,
2013-01-03 20:32:00,75.7,30.6,-100.00,South,191,0.0,9.0,19,0.00,,,0.00,0.0,meteohub,2013-01-04 01:32:00,
2013-01-03 20:42:00,75.6,30.4,-100.00,South,186,3.0,8.0,19,0.00,,,0.00,0.0,meteohub,2013-01-04 01:42:00,
2013-01-03 20:47:00,75.7,30.6,-100.00,SSW,202,2.0,8.0,19,0.00,,,0.00,0.0,meteohub,2013-01-04 01:47:00,
2013-01-03 20:52:00,75.6,30.4,-100.00,SSW,198,2.0,8.0,19,0.00,,,0.00,0.0,meteohub,2013-01-04 01:52:00,
2013-01-03 20:57:00,75.4,30.2,-100.00,SSW,198,5.0,6.0,19,0.00,,,0.00,0.0,meteohub,2013-01-04 01:57:00,
2013-01-03 21:02:00,75.4,30.2,-100.00,SSW,197,2.0,7.0,19,0.00,,,0.00,0.0,meteohub,2013-01-04 02:02:00,
2013-01-03 21:07:00,75.2,30.0,-100.00,SSW,195,3.0,7.0,19,0.00,,,0.00,0.0,meteohub,2013-01-04 02:07:00,
2013-01-03 21:12:00,75.2,30.0,-100.00,South,178,1.0,8.0,19,0.00,,,0.00,0.0,meteohub,2013-01-04 02:12:00,
2013-01-03 21:17:00,75.4,28.9,-100.00,South,187,1.0,8.0,18,0.00,,,0.00,0.0,meteohub,2013-01-04 02:17:00,
2013-01-03 21:22:00,75.2,30.0,-100.00,South,184,4.0,8.0,19,0.00,,,0.00,0.0,meteohub,2013-01-04 02:22:00,
2013-01-03 21:27:00,75.0,30.0,-100.00,South,183,2.0,6.0,19,0.00,,,0.00,0.0,meteohub,2013-01-04 02:27:00,
2013-01-03 21:32:00,74.8,29.8,-100.00,South,184,2.0,6.0,19,0.00,,,0.00,0.0,meteohub,2013-01-04 02:32:00,
2013-01-03 21:37:00,74.8,28.4,-100.00,South,183,1.0,6.0,18,0.00,,,0.00,0.0,meteohub,2013-01-04 02:37:00,
2013-01-03 21:42:00,74.7,28.4,-100.00,South,183,0.0,6.0,18,0.00,,,0.00,0.0,meteohub,2013-01-04 02:42:00,
2013-01-03 21:47:00,74.7,28.4,-100.00,South,184,2.0,6.0,18,0.00,,,0.00,0.0,meteohub,2013-01-04 02:47:00,
2013-01-03 21:52:00,74.7,28.4,-100.00,South,184,0.0,4.0,18,0.00,,,0.00,0.0,meteohub,2013-01-04 02:52:00,
2013-01-03 21:57:00,74.5,28.2,-100.00,South,184,0.0,3.0,18,0.00,,,0.00,0.0,meteohub,2013-01-04 02:57:00,
2013-01-03 22:02:00,74.5,28.2,-100.00,South,184,0.0,3.0,18,0.00,,,0.00,0.0,meteohub,2013-01-04 03:02:00,
2013-01-03 22:07:00,74.5,28.2,-100.00,South,184,0.0,1.0,18,0.00,,,0.00,0.0,meteohub,2013-01-04 03:07:00,
2013-01-03 22:12:00,74.3,28.0,-100.00,South,184,0.0,1.0,18,0.00,,,0.00,0.0,meteohub,2013-01-04 03:12:00,
2013-01-03 22:17:00,74.3,29.3,-100.00,South,184,0.0,2.0,19,0.00,,,0.00,0.0,meteohub,2013-01-04 03:17:00,
2013-01-03 22:22:00,74.3,28.0,-100.00,South,184,0.0,2.0,18,0.00,,,0.00,0.0,meteohub,2013-01-04 03:22:00,
2013-01-03 22:27:00,74.1,29.3,-100.00,South,184,0.0,2.0,19,0.00,,,0.00,0.0,meteohub,2013-01-04 03:27:00,
2013-01-03 22:32:00,74.1,29.3,-100.00,South,184,2.0,2.0,19,0.00,,,0.00,0.0,meteohub,2013-01-04 03:32:00,
2013-01-03 22:37:00,74.1,29.3,-100.00,South,184,0.0,4.0,19,0.00,,,0.00,0.0,meteohub,2013-01-04 03:37:00,
2013-01-03 22:42:00,73.9,29.1,-100.00,South,184,3.0,4.0,19,0.00,,,0.00,0.0,meteohub,2013-01-04 03:42:00,
2013-01-03 22:47:00,73.6,27.5,-100.00,South,184,3.0,5.0,18,0.00,,,0.00,0.0,meteohub,2013-01-04 03:47:00,
2013-01-03 22:52:00,73.6,27.5,-100.00,South,191,3.0,6.0,18,0.00,,,0.00,0.0,meteohub,2013-01-04 03:52:00,
2013-01-03 22:57:00,73.4,27.3,-100.00,SSW,192,2.0,6.0,18,0.00,,,0.00,0.0,meteohub,2013-01-04 03:57:00,
2013-01-03 23:02:00,73.2,27.1,-100.00,South,191,0.0,6.0,18,0.00,,,0.00,0.0,meteohub,2013-01-04 04:02:00,
2013-01-03 23:07:00,73.0,27.0,-100.00,SSW,192,1.0,6.0,18,0.00,,,0.00,0.0,meteohub,2013-01-04 04:07:00,
2013-01-03 23:12:00,73.0,27.0,-100.00,SSW,192,0.0,4.0,18,0.00,,,0.00,0.0,meteohub,2013-01-04 04:12:00,
2013-01-03 23:17:00,73.0,28.4,-100.00,South,191,0.0,3.0,19,0.00,,,0.00,0.0,meteohub,2013-01-04 04:17:00,
2013-01-03 23:22:00,72.9,28.2,-100.00,South,191,0.0,1.0,19,0.00,,,0.00,0.0,meteohub,2013-01-04 04:22:00,
2013-01-03 23:27:00,72.7,28.0,-100.00,SSW,192,0.0,1.0,19,0.00,,,0.00,0.0,meteohub,2013-01-04 04:27:00,
2013-01-03 23:32:00,72.3,27.7,-100.00,SSW,192,0.0,1.0,19,0.00,,,0.00,0.0,meteohub,2013-01-04 04:32:00,
2013-01-03 23:37:00,72.1,27.7,-100.00,South,191,0.0,1.0,19,0.00,,,0.00,0.0,meteohub,2013-01-04 04:37:00,
2013-01-03 23:42:00,72.0,27.5,-100.00,SSW,192,0.0,1.0,19,0.00,,,0.00,0.0,meteohub,2013-01-04 04:42:00,
2013-01-03 23:52:00,71.6,27.1,-100.00,South,191,0.0,1.0,19,0.00,,,0.00,0.0,meteohub,2013-01-04 04:52:00,
2013-01-03 23:57:00,71.2,26.8,-100.00,South,191,0.0,1.0,19,0.00,,,0.00,0.0,meteohub,2013-01-04 04:57:00,